Flag for Germany Weather past 2 weeks in Rheda-Wiedenbrück, North Rhine-Westphalia, Germany

Now
46 °F

Passing clouds.


Feels Like: 44 °F
Forecast: 44 / 57 °F
Wind: 5 mph from Northwest

Location: Paderborn / Lippstadt

Current Time: May 26, 2015 at 4:49:32 AM

Latest Report: May 26, 2015 at 4:20 AM


Visibility: N/A

Pressure: 30.01 "Hg

Humidity: 82%

Dew point: 41 °F

Location of Rheda-WiedenbrückLocation

Historic Weather in Rheda-Wiedenbrück — Graph

°F

Rheda-Wiedenbrück temperature yesterday

Maximum temperature yesterday: 55 °F (at 5:20 PM)
Minimum temperature yesterday: 46 °F (at 1:20 AM)
Average temperature yesterday: 50 °F

Past Weeks' High & Low Weather Summary

 TemperatureHumidityPressure
High77 °F (May 12, 12:20 PM)100% (May 16, 7:20 PM)30.33 "Hg (May 16, 7:20 PM)
Low37 °F (May 15, 3:50 AM)31% (May 11, 4:20 PM)29.62 "Hg (May 18, 9:20 PM)
Average53 °F64%30.05 "Hg
* Reported May 11 3:20 AM — May 26 3:50 AM, Rheda-Wiedenbrück, Weather by CustomWeather, © 2015

Note: Actual official high and low records may vary slightly from our data, if they occured in-between our weather recording intervals... More about our weather records

Advertising

Rheda-Wiedenbrück weather history for previous 24 hours

 ConditionsComfort  
Time TempWeatherWind HumidityBarometerVisibility
3:50 AM
Tue, May 26
46 °FPassing clouds.3 mph82%30.01 "HgN/A
3:20 AM46 °FPassing clouds.5 mph82%30.01 "HgN/A
2:50 AM48 °FPassing clouds.6 mph76%30.01 "HgN/A
2:20 AM48 °FPassing clouds.5 mph76%30.01 "HgN/A
1:50 AM48 °FPassing clouds.5 mph76%30.01 "HgN/A
1:20 AM48 °FPassing clouds.5 mph76%30.01 "HgN/A
12:50 AM48 °FPassing clouds.3 mph76%30.01 "HgN/A
12:20 AM50 °FPassing clouds.5 mph67%29.98 "HgN/A
11:50 PM
Mon, May 25
50 °FPassing clouds.3 mph71%29.98 "HgN/A
11:20 PM50 °FClear.3 mph71%29.98 "Hg10 mi
10:20 PM50 °FSunny.2 mph71%29.98 "Hg10 mi
9:50 PM50 °FSunny.2 mph71%29.98 "Hg10 mi
9:20 PM50 °FSunny.2 mph71%29.95 "Hg10 mi
8:50 PM52 °FSunny.2 mph77%29.95 "Hg10 mi
8:20 PM54 °FPassing clouds.3 mph77%29.95 "HgN/A
7:50 PM54 °FScattered clouds.3 mph77%29.95 "HgN/A
7:20 PM54 °FPassing clouds.5 mph77%29.95 "HgN/A
6:50 PM54 °FPassing clouds.5 mph72%29.95 "HgN/A
6:20 PM55 °FPassing clouds.6 mph67%29.95 "HgN/A
5:50 PM55 °FPassing clouds.5 mph72%29.95 "HgN/A
5:20 PM55 °FPassing clouds.5 mph72%29.95 "HgN/A
4:50 PM52 °FPartly sunny.5 mph82%29.95 "HgN/A
4:20 PM52 °FPartly sunny.5 mph82%29.95 "HgN/A
3:50 PM50 °FScattered clouds.3 mph88%29.98 "HgN/A
3:20 PM48 °FScattered clouds.1 mph94%29.98 "HgN/A
3:00 PM48 °FDrizzle. Broken clouds.5 mph94%29.98 "Hg6 mi
2:20 PM48 °FFog.9 mph94%29.98 "Hg1 mi
1:50 PM50 °FFog.6 mph94%29.98 "Hg1 mi
1:20 PM50 °FFog.6 mph94%29.98 "Hg1 mi
12:50 PM50 °FFog.6 mph94%29.98 "Hg1 mi
12:20 PM50 °FFog.5 mph94%29.98 "Hg1 mi
11:50 AM50 °FFog.3 mph94%29.98 "Hg2 mi
11:20 AM50 °FPartly sunny.5 mph88%29.98 "Hg6 mi
10:50 AM50 °FPartly sunny.5 mph88%29.98 "Hg6 mi
10:20 AM50 °FLight rain. Partly sunny.5 mph88%29.98 "Hg5 mi
9:50 AM50 °FScattered clouds.6 mph88%29.98 "HgN/A
9:20 AM50 °FLight rain. Scattered clouds.7 mph88%29.98 "HgN/A
8:50 AM48 °FLight rain. Scattered clouds.7 mph87%29.98 "HgN/A
8:20 AM48 °FLight rain. Scattered clouds.5 mph87%29.98 "HgN/A
7:50 AM48 °FLight rain. Scattered clouds.5 mph87%29.98 "Hg6 mi
7:20 AM46 °FLight rain. Clear.3 mph87%29.98 "Hg5 mi
6:50 AM46 °FSunny.2 mph87%29.98 "Hg10 mi
6:20 AM48 °FSunny.6 mph76%29.98 "Hg10 mi
5:50 AM48 °FClear.5 mph82%29.98 "Hg10 mi
5:20 AM46 °FClear.2 mph82%29.98 "Hg10 mi
4:50 AM46 °FClear.5 mph82%29.98 "Hg10 mi
4:20 AM46 °FClear.2 mph82%29.98 "Hg10 mi
Weather by CustomWeather, © 2015

See weather overviewHow to use our weather pages